Weather History for KDFI - November, 2014

Change the Weather History Date:

Saturday, November 15, 2014

  Actual Average Record
Temperature  
Mean Temperature 26 °F -  
Max Temperature 33 °F 47 °F 72 °F (1956)
Min Temperature 19 °F 29 °F 13 °F (1986)
Degree Days  
Heating Degree Days 39    
Moisture  
Dew Point 17 °F    
Average Humidity 71    
Maximum Humidity 89    
Minimum Humidity 50    
Precipitation  
Precipitation 0.00 in - - ()
Sea Level Pressure  
Sea Level Pressure 30.37 in    
Wind  
Wind Speed 4 mph (SW)    
Max Wind Speed 12 mph    
Max Gust Speed -    
Visibility 9 miles    
Events      
Averages and records for this station are not official NWS values.
T = Trace of Precipitation, MM = Missing Value Source: NWS Daily Summary

Daily Weather History Graph

Daily Weather History Graph

Search for Another Location

Airport or City:

Trip Planner

Search our weather history database for the weather conditions in past years. The results will help you decide how hot, cold, wet, or windy it might be!

Date:

Astronomy

Nov. 15, 2014 Rise Set
Actual Time 7:25 AM EST 5:18 PM EST
Civil Twilight 6:56 AM EST 5:47 PM EST
Nautical Twilight 6:22 AM EST 6:21 PM EST
Astronomical Twilight 5:50 AM EST 6:53 PM EST
Moon 12:32 AM EST (11/15) 1:45 PM EST (11/15)
Length of Visible Light 10h 51m
Length of Day
9h 52m
Last Quarter, 40% of the Moon is Illuminated
Nov 15
Last Quarter
Nov 22
New
Nov 29
First Quarter
Dec 6
Full
Dec 14
Last Quarter

Hourly Weather History & Observations

Time (EST) Temp. Windchill Dew Point Humidity Pressure Visibility Wind Dir Wind Speed Gust Speed Precip Events Conditions
12:53 AM 21.9 °F - 19.0 °F 89% 30.40 in 8.0 mi Calm Calm - N/A   Clear
1:53 AM 21.0 °F 14.6 °F 17.1 °F 85% 30.39 in 8.0 mi SSW 4.6 mph - N/A   Clear
2:53 AM 21.0 °F 16.2 °F 17.1 °F 85% 30.40 in 9.0 mi WSW 3.5 mph - N/A   Clear
3:53 AM 19.9 °F 14.9 °F 16.0 °F 85% 30.40 in 8.0 mi South 3.5 mph - N/A   Partly Cloudy
4:27 AM 19.0 °F 13.9 °F 16.0 °F 88% 30.37 in 7.0 mi SSW 3.5 mph - N/A   Mostly Cloudy
4:53 AM 21.9 °F 14.5 °F 18.0 °F 85% 30.40 in 8.0 mi SSW 5.8 mph - N/A   Mostly Cloudy
5:26 AM 23.0 °F 18.4 °F 19.0 °F 85% 30.38 in 8.0 mi SSW 3.5 mph - N/A   Overcast
5:53 AM 21.9 °F 15.7 °F 19.0 °F 89% 30.42 in 8.0 mi SSW 4.6 mph - N/A   Overcast
6:53 AM 21.9 °F 17.2 °F 17.1 °F 82% 30.42 in 9.0 mi SW 3.5 mph - N/A   Overcast
7:53 AM 19.0 °F 13.9 °F 15.1 °F 85% 30.43 in 7.0 mi SSW 3.5 mph - N/A   Clear
8:53 AM 21.0 °F 10.6 °F 16.0 °F 81% 30.46 in 9.0 mi WSW 9.2 mph - N/A   Mostly Cloudy
9:53 AM 25.0 °F 16.3 °F 17.1 °F 72% 30.45 in 10.0 mi SW 8.1 mph - N/A   Clear
10:53 AM 28.0 °F 22.8 °F 17.1 °F 63% 30.44 in 10.0 mi WSW 4.6 mph - N/A   Clear
11:53 AM 28.9 °F 20.4 °F 15.1 °F 56% 30.42 in 10.0 mi SW 9.2 mph - N/A   Partly Cloudy
12:53 PM 30.9 °F 21.7 °F 16.0 °F 54% 30.39 in 10.0 mi SW 11.5 mph - N/A   Clear
1:53 PM 32.0 °F 24.2 °F 17.1 °F 54% 30.36 in 10.0 mi WSW 9.2 mph - N/A   Clear
2:53 PM 33.1 °F 26.1 °F 16.0 °F 50% 30.34 in 10.0 mi SSW 8.1 mph - N/A   Clear
3:53 PM 32.0 °F 26.4 °F 16.0 °F 52% 30.33 in 10.0 mi WSW 5.8 mph - N/A   Clear
4:53 PM 32.0 °F 27.5 °F 16.0 °F 52% 30.33 in 10.0 mi SW 4.6 mph - N/A   Clear
5:53 PM 30.9 °F - 17.1 °F 57% 30.31 in 10.0 mi Calm Calm - N/A   Clear
6:53 PM 28.9 °F - 17.1 °F 61% 30.30 in 10.0 mi Calm Calm - N/A   Clear
7:53 PM 27.0 °F - 19.0 °F 72% 30.31 in 10.0 mi Calm Calm - N/A   Clear
8:53 PM 28.0 °F - 18.0 °F 66% 30.30 in 10.0 mi Calm Calm - N/A   Scattered Clouds
9:53 PM 28.9 °F - 19.0 °F 67% 30.29 in 10.0 mi Calm Calm - N/A   Overcast
10:53 PM 28.9 °F - 19.9 °F 69% 30.27 in 10.0 mi Calm Calm - N/A   Overcast
11:53 PM 28.9 °F 25.2 °F 19.9 °F 69% 30.28 in 10.0 mi SSW 3.5 mph - N/A   Overcast